This is the latest recevied weather packets stored in our database for station/object WD9U. If no packets are shown the sender has not sent any weather packets the latest 10 day(s).
| Time | Temp. | Humidity | Pressure | Rain* | Wind** | Luminosity | Snow |
|---|---|---|---|---|---|---|---|
| 1777831993 | 18.89° C | 31% | 1004.7 hPa | 0 mm | - | 830 W/m² | - |
| 1777831633 | 18.89° C | 32% | 1004.8 hPa | 0 mm | - | 844 W/m² | - |
| 1777831515 | 18.89° C | 34% | 1004.7 hPa | 0 mm | - | 840 W/m² | - |
| 1777831272 | 18.89° C | 32% | 1004.8 hPa | 0 mm | - | 832 W/m² | - |
| 1777830913 | 18.33° C | 33% | 1004.8 hPa | 0 mm | - | 834 W/m² | - |
| 1777830552 | 18.33° C | 34% | 1004.8 hPa | 0 mm | - | 838 W/m² | - |
| 1777830315 | 18.33° C | 33% | 1004.8 hPa | 0 mm | - | 826 W/m² | - |
| 1777830192 | 18.33° C | 32% | 1004.9 hPa | 0 mm | - | 830 W/m² | - |
| 1777829831 | 18.33° C | 33% | 1004.9 hPa | 0 mm | - | 817 W/m² | - |
| 1777829471 | 18.33° C | 35% | 1004.9 hPa | 0 mm | - | 824 W/m² | - |
| 1777829111 | 18.33° C | 33% | 1004.9 hPa | 0 mm | - | 828 W/m² | - |
| 1777828751 | 18.33° C | 34% | 1004.9 hPa | 0 mm | - | 822 W/m² | - |
| 1777828391 | 18.33° C | 33% | 1004.9 hPa | 0 mm | - | 818 W/m² | - |
| 1777828031 | 18.33° C | 35% | 1005 hPa | 0 mm | - | 806 W/m² | - |
| 1777827914 | 18.33° C | 33% | 1004.8 hPa | 0 mm | - | 792 W/m² | - |
| 1777827671 | 18.33° C | 33% | 1004.9 hPa | 0 mm | - | 812 W/m² | - |
| 1777827311 | 17.78° C | 36% | 1004.9 hPa | 0 mm | - | 805 W/m² | - |
| 1777826951 | 18.33° C | 35% | 1004.9 hPa | 0 mm | - | 796 W/m² | - |
| 1777826714 | 18.33° C | 35% | 1004.9 hPa | 0 mm | - | 788 W/m² | - |
| 1777826591 | 18.33° C | 36% | 1004.9 hPa | 0 mm | - | 785 W/m² | - |
| 1777826231 | 17.78° C | 37% | 1004.9 hPa | 0 mm | - | 781 W/m² | - |
| 1777825871 | 18.33° C | 36% | 1005 hPa | 0 mm | - | 770 W/m² | - |
| 1777825511 | 18.33° C | 37% | 1004.9 hPa | 0 mm | - | 317 W/m² | - |
| 1777825151 | 17.78° C | 36% | 1004.9 hPa | 0 mm | - | 630 W/m² | - |
| 1777824791 | 17.78° C | 37% | 1004.9 hPa | 0 mm | - | 766 W/m² | - |
* Rain latest hour (hover to see other rain measurements)
** Current wind speed in m/s (hover to see current wind gust speed)